Location: Seasalter
(51.3333°N, 1.0167°E)
Time: 05:23:11
(UTC+00:00)

ATLAS 5 CENTAUR R/B - Pass Details

Date: 01 May 2024
Orbit: 421 x 1170 km, 63.3° (Epoch: 18 May)

Event Time Altitude Azimuth Distance (km) Brightness Sun altitude
Rises 01:25:56 0° 304° (WNW) 3,056 5.2 -20.5°
Reaches altitude 10° 01:28:46 10° 285° (WNW) 2,276 4.3 -20.3°
Enters shadow 01:30:32 16° 266° (W) 1,980 3.9 -20.2°
